SL-14 DEB, 45300

Orbit data source: Space-Track

SL-14 DEB, 45300 is space debris in LEO originally from a launch on Thu, 15 Aug 1991 UTC launched from the Plesetsk Missile And Space Complex (PKMTR). Debris objects in space refer to the collection of defunct objects orbiting the Earth. Examples of debris include non-operational satellites, rocket bodies, and fragments generated from explosions, collisions, or faulty payload assembly.

Loading next visibility...
Identifier
45300, 1991-056AN
Orbit
LEO
Country
Flag of CISCIS
Related business
Manufacturer
Unknown
Mission
Spacecraft
Bus & Motor
Unknown
Mass
Unknown
Launch date (UTC)
1991-08-15 (34 years ago)
Launch vehicle
Unknown
Launch site
Plesetsk Missile And Space Complex (PKMTR)
Object type
Payload
Rocket body
Debris
Shape & HBR
Unknown
Radar Cross Section
Small (<0.1 m²)

Expand to show TLE details & history
Last TLE update: 1 day ago

TLE from 1 day ago
0 SL-14 DEB
1 45300U 91056AN  25241.97364363  .00000417  00000-0  14088-2 0  9993
2 45300  82.5552  44.3533 0125461  89.2415 272.3068 12.94106077260149
Epoch: 2025-08-29T23:22Z
TLE epoch observation values (Epoch: 2025-08-29T23:22:02.809Z)
Latitude
0.00003°
Longitude
75.42699°
Altitude
1,285.381 km
Speed
7.215 km/s
True Right ascension
02h 57m 24s
True Declination
0° 00' 00"
Sunlit
Object was in daylight at epoch
Visualization orbit readout
Latitude
Unknown
Longitude
Unknown
Altitude
Unknown
Speed
Unknown
Apparent Right ascension
Unknown
Apparent Declination
Unknown
Sunlit
N/A
Visualization observer readout
Local Sidereal Time
15:51:35
Azimuth
Unknown
Elevation
Unknown
Doppler factor
Unknown
Orbital elements
Apogee altitude
1,378.658 km
Perigee altitude
1,186.435 km
Semi-major axis
7,660.684 km
Eccentricity
0.01255
Inclination
82.5552°
RAAN
44.3533°
Arg. of periapsis
89.2415°
True anomaly
270.86953°
Mean anomaly
272.3068°
Eccentric anomaly
271.58824°
Mean motion
3.23699 °/min
Orbital period
111.21 mins
BSTAR
0.0014088
Loading maneuver chart data...
Computing Atmospheric mass density...
Loading historical data...
Loading historical data...
Loading historical data...
Loading historical data...
Loading historical data...
Loading historical data...
Loading historical data...

Documentation

Showing up to 5 results
|